Time,TemperatureF,DewpointF,PressureIn,WindDirection,WindDirectionDegrees,WindSpeedMPH,WindSpeedGustMPH,Humidity,HourlyPrecipIn,Conditions,Clouds,dailyrainin,SolarRadiationWatts/m^2,SoftwareType,DateUTC
2013-03-20 00:00:00,23.0,10.0,-100.00,WNW,292,8.0,-999.0,55,-99.99,,,-99.99,0.000000,,2013-03-20 04:00:00,
2013-03-20 00:43:00,23.0,10.0,-100.00,WNW,292,8.0,-999.0,55,-99.99,,,-99.99,0.000000,,2013-03-20 04:43:00,
2013-03-20 00:53:00,23.0,10.0,-100.00,WNW,292,8.0,-999.0,55,-99.99,,,-99.99,0.000000,,2013-03-20 04:53:00,
2013-03-20 01:00:00,23.0,10.0,-100.00,WNW,292,8.0,-999.0,56,-99.99,,,-99.99,0.000000,,2013-03-20 05:00:00,
2013-03-20 01:43:00,23.0,10.0,-100.00,WNW,292,8.0,-999.0,56,-99.99,,,-99.99,0.000000,,2013-03-20 05:43:00,
2013-03-20 01:53:00,23.0,10.0,-100.00,WNW,292,8.0,-999.0,56,-99.99,,,-99.99,0.000000,,2013-03-20 05:53:00,
2013-03-20 02:00:00,23.0,10.0,-100.00,WNW,292,8.0,-999.0,57,-99.99,,,-99.99,0.000000,,2013-03-20 06:00:00,
2013-03-20 02:43:00,23.0,10.0,-100.00,WNW,292,8.0,-999.0,57,-99.99,,,-99.99,0.000000,,2013-03-20 06:43:00,
2013-03-20 02:53:00,23.0,10.0,-100.00,WNW,292,8.0,-999.0,57,-99.99,,,-99.99,0.000000,,2013-03-20 06:53:00,
2013-03-20 03:00:00,22.0,10.0,-100.00,WNW,292,7.0,-999.0,58,-99.99,,,-99.99,0.000000,,2013-03-20 07:00:00,
2013-03-20 03:42:00,22.0,10.0,-100.00,WNW,292,7.0,-999.0,58,-99.99,,,-99.99,0.000000,,2013-03-20 07:42:00,
2013-03-20 03:52:00,22.0,10.0,-100.00,WNW,292,7.0,-999.0,58,-99.99,,,-99.99,0.000000,,2013-03-20 07:52:00,
2013-03-20 04:00:00,21.0,10.0,-100.00,West,270,6.0,-999.0,61,-99.99,,,-99.99,0.000000,,2013-03-20 08:00:00,
2013-03-20 04:43:00,21.0,10.0,-100.00,West,270,6.0,-999.0,61,-99.99,,,-99.99,0.000000,,2013-03-20 08:43:00,
2013-03-20 04:52:00,21.0,10.0,-100.00,West,270,6.0,-999.0,61,-99.99,,,-99.99,0.000000,,2013-03-20 08:52:00,
2013-03-20 05:00:00,20.0,10.0,-100.00,WNW,292,5.0,-999.0,64,-99.99,,,-99.99,0.000000,,2013-03-20 09:00:00,
2013-03-20 05:43:00,20.0,10.0,-100.00,WNW,292,5.0,-999.0,64,-99.99,,,-99.99,0.000000,,2013-03-20 09:43:00,
2013-03-20 05:53:00,20.0,10.0,-100.00,WNW,292,5.0,-999.0,64,-99.99,,,-99.99,0.000000,,2013-03-20 09:53:00,
2013-03-20 06:00:00,19.0,10.0,-100.00,WNW,292,5.0,-999.0,66,-99.99,,,-99.99,0.000000,,2013-03-20 10:00:00,
2013-03-20 06:43:00,19.0,10.0,-100.00,WNW,292,5.0,-999.0,66,-99.99,,,-99.99,0.000000,,2013-03-20 10:43:00,
2013-03-20 06:53:00,19.0,10.0,-100.00,WNW,292,5.0,-999.0,66,-99.99,,,-99.99,0.000000,,2013-03-20 10:53:00,
2013-03-20 07:00:00,18.0,9.0,-100.00,WNW,292,5.0,-999.0,68,-99.99,,,-99.99,0.000000,,2013-03-20 11:00:00,
2013-03-20 07:43:00,18.0,9.0,-100.00,WNW,292,5.0,-999.0,68,-99.99,,,-99.99,0.000000,,2013-03-20 11:43:00,
2013-03-20 07:52:00,18.0,9.0,-100.00,WNW,292,5.0,-999.0,68,-99.99,,,-99.99,0.000000,,2013-03-20 11:52:00,
2013-03-20 08:00:00,18.0,9.0,-100.00,WNW,292,5.0,-999.0,67,-99.99,,,-99.99,2.320000,,2013-03-20 12:00:00,
2013-03-20 08:43:00,18.0,9.0,-100.00,WNW,292,5.0,-999.0,67,-99.99,,,-99.99,2.320000,,2013-03-20 12:43:00,
2013-03-20 08:52:00,18.0,9.0,-100.00,WNW,292,5.0,-999.0,67,-99.99,,,-99.99,2.320000,,2013-03-20 12:52:00,
2013-03-20 09:00:00,19.0,10.0,-100.00,West,270,6.0,-999.0,66,-99.99,,,-99.99,68.440002,,2013-03-20 13:00:00,
2013-03-20 09:43:00,19.0,10.0,-100.00,West,270,6.0,-999.0,66,-99.99,,,-99.99,68.440002,,2013-03-20 13:43:00,
2013-03-20 09:53:00,19.0,10.0,-100.00,West,270,6.0,-999.0,66,-99.99,,,-99.99,68.440002,,2013-03-20 13:53:00,
2013-03-20 10:00:00,20.0,13.0,-100.00,WNW,292,7.0,-999.0,72,-99.99,,,-99.99,206.479996,,2013-03-20 14:00:00,
2013-03-20 10:43:00,20.0,13.0,-100.00,WNW,292,7.0,-999.0,72,-99.99,,,-99.99,206.479996,,2013-03-20 14:43:00,
2013-03-20 10:53:00,20.0,13.0,-100.00,WNW,292,7.0,-999.0,72,-99.99,,,-99.99,206.479996,,2013-03-20 14:53:00,
2013-03-20 11:00:00,20.0,14.0,-100.00,WNW,292,9.0,-999.0,76,-99.99,,,-99.99,278.399994,,2013-03-20 15:00:00,
2013-03-20 11:44:00,20.0,14.0,-100.00,WNW,292,9.0,-999.0,76,-99.99,,,-99.99,278.399994,,2013-03-20 15:44:00,
2013-03-20 11:53:00,20.0,14.0,-100.00,WNW,292,9.0,-999.0,76,-99.99,,,-99.99,278.399994,,2013-03-20 15:53:00,
2013-03-20 12:00:00,20.0,13.0,-100.00,WNW,292,11.0,-999.0,72,-99.99,,,-99.99,423.399994,,2013-03-20 16:00:00,
2013-03-20 12:43:00,20.0,13.0,-100.00,WNW,292,11.0,-999.0,72,-99.99,,,-99.99,423.399994,,2013-03-20 16:43:00,
2013-03-20 12:53:00,20.0,13.0,-100.00,WNW,292,11.0,-999.0,72,-99.99,,,-99.99,423.399994,,2013-03-20 16:53:00,
2013-03-20 13:00:00,20.0,12.0,-100.00,WNW,292,11.0,-999.0,70,-99.99,,,-99.99,622.919983,,2013-03-20 17:00:00,
2013-03-20 13:42:00,20.0,12.0,-100.00,WNW,292,11.0,-999.0,70,-99.99,,,-99.99,622.919983,,2013-03-20 17:42:00,
2013-03-20 13:53:00,20.0,12.0,-100.00,WNW,292,11.0,-999.0,70,-99.99,,,-99.99,622.919983,,2013-03-20 17:53:00,
2013-03-20 14:00:00,20.0,12.0,-100.00,West,270,10.0,-999.0,71,0.01,,,-99.99,628.719971,,2013-03-20 18:00:00,
2013-03-20 14:43:00,20.0,12.0,-100.00,West,270,10.0,-999.0,71,0.01,,,-99.99,628.719971,,2013-03-20 18:43:00,
2013-03-20 14:53:00,20.0,12.0,-100.00,West,270,10.0,-999.0,71,0.01,,,-99.99,628.719971,,2013-03-20 18:53:00,
2013-03-20 15:00:00,19.0,11.0,-100.00,West,270,11.0,-999.0,71,-99.99,,,-99.99,524.320007,,2013-03-20 19:00:00,
2013-03-20 15:42:00,19.0,11.0,-100.00,West,270,11.0,-999.0,71,-99.99,,,-99.99,524.320007,,2013-03-20 19:42:00,
2013-03-20 15:53:00,19.0,11.0,-100.00,West,270,11.0,-999.0,71,-99.99,,,-99.99,524.320007,,2013-03-20 19:53:00,
2013-03-20 16:00:00,19.0,11.0,-100.00,WNW,292,11.0,-999.0,72,-99.99,,,-99.99,467.480011,,2013-03-20 20:00:00,
2013-03-20 16:32:00,19.0,11.0,-100.00,WNW,292,11.0,-999.0,72,-99.99,,,-99.99,467.480011,,2013-03-20 20:32:00,
2013-03-20 16:43:00,19.0,11.0,-100.00,WNW,292,11.0,-999.0,72,-99.99,,,-99.99,467.480011,,2013-03-20 20:43:00,
2013-03-20 16:53:00,19.0,11.0,-100.00,WNW,292,11.0,-999.0,72,-99.99,,,-99.99,467.480011,,2013-03-20 20:53:00,
2013-03-20 17:00:00,18.0,11.0,-100.00,WNW,292,9.0,-999.0,74,-99.99,,,-99.99,317.839996,,2013-03-20 21:00:00,
2013-03-20 17:42:00,18.0,11.0,-100.00,WNW,292,9.0,-999.0,74,-99.99,,,-99.99,317.839996,,2013-03-20 21:42:00,
2013-03-20 17:53:00,18.0,11.0,-100.00,WNW,292,9.0,-999.0,74,-99.99,,,-99.99,317.839996,,2013-03-20 21:53:00,
2013-03-20 18:00:00,18.0,12.0,-100.00,WNW,292,9.0,-999.0,76,-99.99,,,-99.99,254.039993,,2013-03-20 22:00:00,
2013-03-20 18:43:00,18.0,12.0,-100.00,WNW,292,9.0,-999.0,76,-99.99,,,-99.99,254.039993,,2013-03-20 22:43:00,
2013-03-20 18:53:00,18.0,12.0,-100.00,WNW,292,9.0,-999.0,76,-99.99,,,-99.99,254.039993,,2013-03-20 22:53:00,
2013-03-20 19:00:00,18.0,12.0,-100.00,NW,315,7.0,-999.0,78,-99.99,,,-99.99,136.880005,,2013-03-20 23:00:00,
2013-03-20 19:43:00,18.0,12.0,-100.00,NW,315,7.0,-999.0,78,-99.99,,,-99.99,136.880005,,2013-03-20 23:43:00,
2013-03-20 19:53:00,18.0,12.0,-100.00,NW,315,7.0,-999.0,78,-99.99,,,-99.99,136.880005,,2013-03-20 23:53:00,
2013-03-20 20:00:00,16.0,10.0,-100.00,WNW,292,6.0,-999.0,79,-99.99,,,-99.99,24.360001,,2013-03-21 00:00:00,
2013-03-20 20:42:00,16.0,10.0,-100.00,WNW,292,6.0,-999.0,79,-99.99,,,-99.99,24.360001,,2013-03-21 00:42:00,
2013-03-20 20:53:00,16.0,10.0,-100.00,WNW,292,6.0,-999.0,79,-99.99,,,-99.99,24.360001,,2013-03-21 00:53:00,
2013-03-20 21:00:00,13.0,10.0,-100.00,West,270,2.0,-999.0,87,-99.99,,,-99.99,0.000000,,2013-03-21 01:00:00,
2013-03-20 21:42:00,13.0,10.0,-100.00,West,270,2.0,-999.0,87,-99.99,,,-99.99,0.000000,,2013-03-21 01:42:00,
2013-03-20 21:53:00,13.0,10.0,-100.00,West,270,2.0,-999.0,87,-99.99,,,-99.99,0.000000,,2013-03-21 01:53:00,
2013-03-20 22:00:00,11.0,8.0,-100.00,WNW,292,2.0,-999.0,88,-99.99,,,-99.99,0.000000,,2013-03-21 02:00:00,
2013-03-20 23:00:00,11.0,8.0,-100.00,West,270,3.0,-999.0,88,-99.99,,,-99.99,0.000000,,2013-03-21 03:00:00,
2013-03-20 23:43:00,11.0,8.0,-100.00,West,270,3.0,-999.0,88,-99.99,,,-99.99,0.000000,,2013-03-21 03:43:00,
2013-03-20 23:53:00,11.0,8.0,-100.00,West,270,3.0,-999.0,88,-99.99,,,-99.99,0.000000,,2013-03-21 03:53:00,